[[{"header":{"parameterUnit":"m.s-1","parameterCategory":1,"la1":30.2991,"la2":30.254,"lo1":-89.0895,"lo2":-89.0444,"dy":0.0017,"dx":0.0017,"nx":28,"ny":28,"refTime":"2024-03-22T21:00:00:Z","depth":0,"parameterNumber":2,"parameterNumberName":"U-component_of_WINDS"},"data":[0,0,0,0,0,0,0,0,0,0,0,0,0,0,0,0,0,0,0,0,0,0,0,0,0,0,0,0,0,0,0,0,0,0,0,0,0,0,0,0,0,0,0,0,0,0,0,0,0,0,0,0,0,0,0,0,0,0,3.818,3.818,0,3.8222,3.8222,3.8223,3.8189,3.8188,3.8187,3.8185,3.8228,3.8231,3.8233,0,0,0,0,0,0,0,0,0,0,0,0,0,3.807,3.8073,3.818,3.818,3.8181,3.8222,3.8222,3.8223,3.819,3.8188,3.8186,3.8185,3.8227,3.823,3.8233,0,0,0,0,0,0,0,0,0,0,0,0,0,3.8116,3.8073,3.8179,3.8169,3.8168,3.8222,3.8222,3.8223,3.819,3.8188,3.8186,3.8184,3.8227,3.823,3.8234,3.8299,0,0,3.8245,3.8247,0,0,0,0,0,0,0,0,3.8113,3.812,3.817,3.817,3.8169,3.8198,3.82,3.8249,3.8191,3.8182,3.8185,3.8183,3.822,3.8224,3.8237,3.8301,3.8303,3.8245,3.8248,3.8249,3.825,0,0,0,0,0,0,0,3.811,3.8118,3.8196,3.8171,3.817,3.8162,3.8166,3.8209,3.8212,3.8182,3.818,3.8186,3.8219,3.8233,3.8237,3.8304,3.8245,3.8249,3.8251,3.8252,3.8426,3.8428,0,0,0,0,0,0,3.8108,3.8115,3.8195,3.8198,3.8135,3.8166,3.8171,3.8191,3.8212,3.8213,3.8187,3.8184,3.8228,3.8233,3.8239,3.8318,3.8249,3.8253,3.8255,3.8424,3.8427,3.8429,0,0,0,0,0,0,3.8106,3.8115,3.8193,3.8156,3.8165,3.817,3.8193,3.8193,3.8207,3.8216,3.8216,3.8201,3.8226,3.8234,3.8285,3.8319,3.8254,3.8258,3.8421,3.8425,3.8428,3.8475,0,0,0,0,0,0,3.8103,3.8115,3.814,3.8157,3.8167,3.8238,3.8196,3.8195,3.8213,3.8209,3.8228,3.8229,3.8225,3.828,3.8289,3.8322,3.8261,3.8418,3.8422,3.8427,3.8471,3.848,3.8488,0,0,0,0,0,3.8099,3.8151,3.8141,3.8151,3.8198,3.824,3.8246,3.8241,3.8216,3.8241,3.8247,3.8229,3.8314,3.8285,3.8295,3.8331,3.8416,3.8421,3.8426,3.8467,3.8478,3.8488,0,0,0,0,0,0,3.8137,3.8153,3.8142,3.8201,3.822,3.8235,3.8266,3.8253,3.8279,3.8274,3.8266,3.827,3.8324,3.8333,3.83,3.8396,3.8361,3.8368,3.8388,3.8399,3.8408,3.8404,3.8264,0,0,0,0,0,3.8152,3.8185,3.8197,3.8248,3.8258,3.8261,3.8279,3.8273,3.8292,3.83,3.8309,3.8328,3.8359,3.838,3.8409,3.8472,3.8476,3.8502,3.851,3.8517,3.8524,3.8559,3.857,3.8447,3.8447,3.8447,0,0,3.8184,3.8197,3.8218,3.8256,3.827,3.8304,3.8267,3.8305,3.8331,3.8305,3.8354,3.8362,3.8383,3.8441,3.8467,3.845,3.8559,3.8524,3.853,3.8532,3.8566,3.8577,3.8588,3.845,3.845,3.8449,0,0,3.826,3.8273,3.8317,3.8332,3.8353,3.8355,3.8366,3.8383,3.8387,3.8437,3.8419,3.8449,3.8503,3.8518,3.8533,3.8617,3.8601,3.8627,3.8672,3.8706,3.8716,3.8724,3.8754,3.8765,3.8633,3.8634,3.8634,0,3.8296,3.8347,3.8341,3.838,3.8398,3.8377,3.8422,3.8437,3.8467,3.848,3.846,3.8528,3.854,3.8602,3.8622,3.8635,3.8648,3.8624,3.8715,3.8723,3.8731,3.876,3.8771,3.8636,3.8636,3.8636,3.8636,0,3.8391,3.8427,3.846,3.849,3.8512,3.8554,3.8554,3.8577,3.857,3.8574,3.8625,3.8639,3.8671,3.8686,3.8679,3.8747,3.8736,3.8716,3.868,3.8746,3.8773,3.8783,3.8641,3.864,3.8639,3.8638,0,0,3.849,3.8518,3.853,3.8544,3.8567,3.8594,3.8636,3.8667,3.8687,3.8709,3.8744,3.879,3.8773,3.879,3.8785,3.8815,3.8881,3.8791,3.8792,3.8807,3.8957,3.8971,3.8984,3.8871,3.8873,3.8875,3.8955,0,3.8567,3.8639,3.8635,3.8703,3.8736,3.8718,3.8754,3.8773,3.8778,3.8807,3.8813,3.8846,3.882,3.883,3.8859,3.8866,3.8911,3.8861,3.8903,3.8905,3.8898,3.8998,3.9013,3.9088,3.8966,3.8967,3.8969,0,3.8665,3.8691,3.8762,3.8781,3.8795,3.8828,3.8857,3.8885,3.8906,3.8908,3.8928,3.8919,3.8961,3.8926,3.8984,3.8951,3.8968,3.8975,3.8977,3.898,3.894,3.9003,3.9112,3.9123,3.8985,3.8984,3.8982,0,3.873,3.8783,3.8832,3.8845,3.8868,3.8892,3.8903,3.8921,3.8941,3.8967,3.898,3.901,3.9027,3.9051,3.9051,3.9025,3.911,3.9074,3.9113,3.9113,3.9131,3.913,3.9244,3.9144,3.9143,3.9143,3.9143,0,3.8816,3.886,3.8862,3.8892,3.8942,3.8938,3.8987,3.8995,3.9012,3.9044,3.9031,3.9061,3.9059,3.909,3.909,3.9139,3.9147,3.9149,3.9149,3.915,3.915,3.9161,3.9155,3.9146,3.9145,3.9145,3.9144,0,3.8896,3.8899,3.8952,3.8971,3.8976,3.9012,3.9028,3.9057,3.9062,3.9102,3.9112,3.9119,3.9155,3.9157,3.9198,3.9199,3.9258,3.9252,3.9251,3.925,3.9288,3.9284,3.9412,3.9429,3.9319,3.932,3.932,0,3.895,3.8984,3.9006,3.9027,3.9039,3.9073,3.9093,3.9091,3.9112,3.9139,3.9165,3.92,3.9228,3.9286,3.9295,3.9327,3.9321,3.9364,3.9326,3.9327,3.9322,3.932,3.9323,3.9371,3.9372,3.9373,3.9374,0,3.9046,3.9046,3.9075,3.9106,3.9131,3.9155,3.9177,3.9195,3.9195,3.9221,3.9257,3.9279,3.9322,3.9356,3.9388,3.9399,3.9387,3.9387,3.9397,3.9398,3.9396,3.9398,3.9271,3.9383,3.9382,3.9382,3.9381,3.9381,3.9114,3.9144,3.9164,3.9198,3.9215,3.9236,3.9265,3.9273,3.9304,3.9338,3.9335,3.9376,3.9398,3.9438,3.9453,3.9485,3.947,3.9486,3.949,3.9493,3.9497,3.9392,3.9491,3.9491,3.949,3.949,3.949,0,3.9209,3.9222,3.9253,3.9285,3.9312,3.9298,3.9323,3.9346,3.9382,3.9403,3.9431,3.9473,3.9507,3.952,3.9553,3.9577,3.9572,3.9585,3.9583,3.9586,3.9508,3.9496,3.9589,3.9589,3.9589,3.9588,3.9588,3.9588,3.9261,3.931,3.9313,3.9371,3.9383,3.9423,3.9438,3.9458,3.9475,3.9523,3.9551,3.9559,3.9577,3.9612,3.9643,3.9646,3.9658,3.9674,3.9675,3.9602,3.9592,3.9582,3.957,3.9677,3.9677,3.975,3.975,3.9751]},{"header":{"parameterUnit":"m.s-1","parameterCategory":1,"la1":30.2991,"la2":30.254,"lo1":-89.0895,"lo2":-89.0444,"dy":0.0017,"dx":0.0017,"nx":28,"ny":28,"refTime":"2024-03-22T21:00:00:Z","depth":0,"parameterNumber":3,"parameterNumberName":"V-component_of_WINDS"},"data":[0,0,0,0,0,0,0,0,0,0,0,0,0,0,0,0,0,0,0,0,0,0,0,0,0,0,0,0,0,0,0,0,0,0,0,0,0,0,0,0,0,0,0,0,0,0,0,0,0,0,0,0,0,0,0,0,0,0,-4.2782,-4.2782,0,-4.2781,-4.2781,-4.2781,-4.271,-4.2708,-4.2706,-4.2705,-4.2703,-4.2704,-4.2706,0,0,0,0,0,0,0,0,0,0,0,0,0,-4.2722,-4.2723,-4.2782,-4.2782,-4.2782,-4.2781,-4.2781,-4.2781,-4.271,-4.2708,-4.2706,-4.2704,-4.2702,-4.2704,-4.2706,0,0,0,0,0,0,0,0,0,0,0,0,0,-4.2737,-4.2724,-4.2782,-4.2747,-4.2744,-4.2781,-4.2781,-4.2781,-4.2711,-4.2708,-4.2705,-4.2703,-4.2701,-4.2704,-4.2706,-4.2778,0,0,-4.2714,-4.2715,0,0,0,0,0,0,0,0,-4.2736,-4.274,-4.2752,-4.2749,-4.2746,-4.2743,-4.2759,-4.278,-4.2712,-4.2723,-4.2705,-4.2701,-4.2718,-4.2719,-4.2725,-4.2777,-4.2777,-4.2714,-4.2716,-4.2717,-4.2718,0,0,0,0,0,0,0,-4.2735,-4.2739,-4.2782,-4.2752,-4.2748,-4.2731,-4.273,-4.2763,-4.2736,-4.2722,-4.2717,-4.2718,-4.2716,-4.2723,-4.2724,-4.2777,-4.2714,-4.2716,-4.2718,-4.2719,-4.2888,-4.2891,0,0,0,0,0,0,-4.2739,-4.2739,-4.2782,-4.2782,-4.2734,-4.2734,-4.2733,-4.2747,-4.2736,-4.2731,-4.272,-4.2714,-4.272,-4.2722,-4.2724,-4.2807,-4.2717,-4.2719,-4.2721,-4.2885,-4.2889,-4.2892,0,0,0,0,0,0,-4.2738,-4.2744,-4.2782,-4.2759,-4.2762,-4.2738,-4.2754,-4.2748,-4.2755,-4.2734,-4.2729,-4.2732,-4.2718,-4.2721,-4.2765,-4.2806,-4.272,-4.2723,-4.2882,-4.2886,-4.289,-4.2973,0,0,0,0,0,0,-4.2737,-4.2744,-4.2771,-4.276,-4.2764,-4.2823,-4.2756,-4.275,-4.2759,-4.2752,-4.2744,-4.274,-4.2716,-4.2762,-4.2767,-4.2808,-4.2725,-4.2878,-4.2884,-4.2889,-4.2966,-4.2979,-4.2991,0,0,0,0,0,-4.2735,-4.2794,-4.2773,-4.2778,-4.2797,-4.2826,-4.2828,-4.2799,-4.2763,-4.279,-4.2777,-4.274,-4.28,-4.2767,-4.2773,-4.2814,-4.2875,-4.2882,-4.2889,-4.2961,-4.2977,-4.2991,0,0,0,0,0,0,-4.281,-4.2792,-4.2768,-4.2825,-4.2828,-4.2813,-4.2846,-4.2817,-4.2829,-4.2821,-4.2784,-4.2783,-4.2833,-4.2828,-4.2791,-4.2883,-4.2831,-4.284,-4.2884,-4.2899,-4.2911,-4.2912,-4.2727,0,0,0,0,0,-4.2833,-4.2858,-4.2841,-4.2893,-4.2895,-4.2871,-4.2882,-4.286,-4.286,-4.2861,-4.2851,-4.2853,-4.2872,-4.2885,-4.2902,-4.2965,-4.2963,-4.2997,-4.3009,-4.3019,-4.3027,-4.306,-4.3075,-4.2914,-4.2914,-4.2914,0,0,-4.2881,-4.2874,-4.2892,-4.2908,-4.2907,-4.2933,-4.2872,-4.2902,-4.2922,-4.2865,-4.2907,-4.29,-4.2899,-4.2954,-4.2977,-4.2951,-4.3071,-4.3028,-4.3036,-4.3038,-4.3069,-4.3084,-4.3097,-4.2919,-4.2918,-4.2917,0,0,-4.2982,-4.298,-4.3023,-4.3023,-4.3023,-4.3006,-4.3017,-4.3008,-4.3001,-4.3042,-4.3,-4.3022,-4.3056,-4.3058,-4.3063,-4.3166,-4.3133,-4.3172,-4.3236,-4.3269,-4.3281,-4.3292,-4.3329,-4.3343,-4.3179,-4.318,-4.318,0,-4.3042,-4.308,-4.3049,-4.3082,-4.309,-4.3041,-4.3084,-4.3086,-4.3091,-4.3098,-4.3069,-4.311,-4.3107,-4.316,-4.3186,-4.3192,-4.3202,-4.3172,-4.3282,-4.3293,-4.3303,-4.3337,-4.3351,-4.3184,-4.3184,-4.3183,-4.3183,0,-4.3153,-4.3181,-4.3216,-4.3222,-4.3234,-4.3273,-4.3247,-4.3262,-4.3239,-4.3226,-4.3268,-4.3262,-4.3277,-4.3288,-4.3265,-4.3339,-4.3323,-4.3289,-4.3236,-4.3324,-4.3355,-4.3368,-4.3191,-4.319,-4.3188,-4.3187,0,0,-4.3301,-4.329,-4.3303,-4.3306,-4.3302,-4.3323,-4.3359,-4.3373,-4.3388,-4.3393,-4.3422,-4.3452,-4.3421,-4.3427,-4.3404,-4.3433,-4.3515,-4.3395,-4.3394,-4.3417,-4.3596,-4.3621,-4.3637,-4.3493,-4.3495,-4.3497,-4.3596,0,-4.3398,-4.346,-4.3433,-4.3497,-4.3522,-4.3476,-4.3507,-4.3508,-4.3497,-4.3516,-4.3503,-4.3525,-4.3482,-4.3485,-4.3512,-4.3499,-4.355,-4.3492,-4.352,-4.3521,-4.3521,-4.3654,-4.3681,-4.3774,-4.3608,-4.361,-4.3611,0,-4.3521,-4.3532,-4.3598,-4.3591,-4.36,-4.3629,-4.364,-4.3659,-4.366,-4.3649,-4.3657,-4.3627,-4.3662,-4.361,-4.3658,-4.3619,-4.3629,-4.3624,-4.3627,-4.3628,-4.3571,-4.3659,-4.3803,-4.3817,-4.3631,-4.3629,-4.3628,0,-4.3622,-4.3653,-4.3697,-4.3701,-4.3693,-4.3714,-4.3712,-4.3709,-4.372,-4.373,-4.3736,-4.375,-4.3758,-4.3769,-4.3744,-4.3709,-4.3795,-4.3742,-4.3788,-4.3788,-4.3808,-4.3807,-4.3956,-4.3814,-4.3814,-4.3814,-4.3814,0,-4.3733,-4.3776,-4.3742,-4.3769,-4.3816,-4.3784,-4.3831,-4.3824,-4.3822,-4.3847,-4.3808,-4.3832,-4.3797,-4.3818,-4.3799,-4.3841,-4.3845,-4.3837,-4.3832,-4.3841,-4.3842,-4.3847,-4.384,-4.3818,-4.3817,-4.3816,-4.3815,0,-4.3854,-4.3833,-4.3878,-4.3867,-4.3865,-4.39,-4.389,-4.3915,-4.3901,-4.3933,-4.3938,-4.3917,-4.3939,-4.3916,-4.3936,-4.3923,-4.398,-4.3965,-4.398,-4.3976,-4.4023,-4.4019,-4.418,-4.42,-4.4046,-4.4048,-4.4049,0,-4.3927,-4.3959,-4.3951,-4.3965,-4.3965,-4.3988,-4.3999,-4.3969,-4.3982,-4.3985,-4.401,-4.4029,-4.4042,-4.408,-4.4066,-4.4082,-4.4067,-4.4122,-4.4069,-4.4077,-4.4068,-4.4066,-4.4069,-4.4133,-4.4135,-4.4136,-4.4138,0,-4.4058,-4.4046,-4.4064,-4.4078,-4.4092,-4.4102,-4.4108,-4.4122,-4.4091,-4.4108,-4.413,-4.4141,-4.4162,-4.4182,-4.4193,-4.419,-4.4159,-4.4155,-4.4166,-4.4176,-4.4183,-4.418,-4.401,-4.4151,-4.415,-4.4149,-4.4148,-4.4147,-4.4157,-4.4183,-4.4182,-4.4203,-4.4205,-4.4212,-4.4235,-4.4224,-4.4242,-4.4258,-4.4239,-4.4267,-4.4266,-4.4279,-4.428,-4.4301,-4.4278,-4.4294,-4.4298,-4.4303,-4.431,-4.418,-4.4303,-4.4303,-4.4302,-4.4302,-4.4302,0,-4.4286,-4.4284,-4.4303,-4.4314,-4.433,-4.43,-4.4306,-4.4321,-4.4347,-4.4349,-4.4363,-4.439,-4.4408,-4.4396,-4.4412,-4.4432,-4.4418,-4.4437,-4.4435,-4.4435,-4.433,-4.4319,-4.4448,-4.4448,-4.4448,-4.4448,-4.4448,-4.4448,-4.4356,-4.4399,-4.4387,-4.4431,-4.4427,-4.4455,-4.4461,-4.4467,-4.4469,-4.45,-4.4516,-4.4507,-4.4504,-4.452,-4.4536,-4.4531,-4.4539,-4.4563,-4.4554,-4.4457,-4.4442,-4.4429,-4.4418,-4.4565,-4.4566,-4.4657,-4.4658,-4.4659]}]]